[[{"header":{"parameterUnit":"m.s-1","parameterCategory":1,"la1":30.2991,"la2":30.254,"lo1":-89.0895,"lo2":-89.0444,"dy":0.0017,"dx":0.0017,"nx":28,"ny":28,"refTime":"2024-02-15T09:00:00:Z","depth":0,"parameterNumber":2,"parameterNumberName":"U-component_of_WINDS"},"data":[0,0,0,0,0,0,0,0,0,0,0,0,0,0,0,0,0,0,0,0,0,0,0,0,0,0,0,0,0,0,0,0,0,0,0,0,0,0,0,0,0,0,0,0,0,0,0,0,0,0,0,0,0,0,0,0,0,0,-0.4348,-0.4348,0,-0.4355,-0.4355,-0.4355,-0.4334,-0.4333,-0.4333,-0.4332,-0.4341,-0.4341,-0.4342,0,0,0,0,0,0,0,0,0,0,0,0,0,-0.4316,-0.4317,-0.4348,-0.4348,-0.4348,-0.4355,-0.4355,-0.4355,-0.4334,-0.4333,-0.4333,-0.4332,-0.434,-0.4341,-0.4342,0,0,0,0,0,0,0,0,0,0,0,0,0,-0.4327,-0.4317,-0.4348,-0.4338,-0.4338,-0.4355,-0.4355,-0.4355,-0.4334,-0.4333,-0.4332,-0.4332,-0.434,-0.4341,-0.4342,-0.437,0,0,-0.4346,-0.4347,0,0,0,0,0,0,0,0,-0.4327,-0.4328,-0.434,-0.4339,-0.4338,-0.4343,-0.4347,-0.436,-0.4335,-0.4336,-0.4332,-0.4331,-0.4342,-0.4343,-0.4347,-0.437,-0.4371,-0.4346,-0.4347,-0.4348,-0.4348,0,0,0,0,0,0,0,-0.4326,-0.4328,-0.4351,-0.434,-0.4339,-0.4334,-0.4334,-0.4349,-0.4344,-0.4335,-0.4334,-0.4335,-0.4342,-0.4346,-0.4347,-0.4371,-0.4346,-0.4347,-0.4348,-0.4349,-0.4416,-0.4417,0,0,0,0,0,0,-0.4326,-0.4327,-0.4351,-0.4351,-0.433,-0.4335,-0.4336,-0.4342,-0.4344,-0.4343,-0.4336,-0.4334,-0.4344,-0.4345,-0.4347,-0.4379,-0.4348,-0.4349,-0.435,-0.4415,-0.4416,-0.4418,0,0,0,0,0,0,-0.4326,-0.4328,-0.435,-0.4339,-0.4341,-0.4337,-0.4344,-0.4343,-0.4347,-0.4344,-0.4343,-0.4341,-0.4343,-0.4345,-0.4364,-0.4379,-0.4349,-0.435,-0.4414,-0.4416,-0.4417,-0.4443,0,0,0,0,0,0,-0.4325,-0.4328,-0.4339,-0.4339,-0.4342,-0.4367,-0.4345,-0.4344,-0.4349,-0.4347,-0.4349,-0.4348,-0.4343,-0.4362,-0.4365,-0.438,-0.4351,-0.4413,-0.4415,-0.4416,-0.444,-0.4445,-0.4449,0,0,0,0,0,-0.4324,-0.4346,-0.4339,-0.4342,-0.4355,-0.4368,-0.437,-0.4362,-0.435,-0.4361,-0.4359,-0.4348,-0.4377,-0.4364,-0.4368,-0.4383,-0.4412,-0.4414,-0.4416,-0.4439,-0.4444,-0.4449,0,0,0,0,0,0,-0.4348,-0.4346,-0.4339,-0.4362,-0.4365,-0.4365,-0.4378,-0.4369,-0.4376,-0.4373,-0.4364,-0.4365,-0.4385,-0.4386,-0.4372,-0.4409,-0.4392,-0.4395,-0.4408,-0.4413,-0.4417,-0.4416,-0.4353,0,0,0,0,0,-0.4356,-0.4367,-0.4365,-0.4385,-0.4387,-0.4382,-0.4388,-0.4382,-0.4385,-0.4387,-0.4386,-0.439,-0.44,-0.4406,-0.4415,-0.444,-0.444,-0.4452,-0.4456,-0.446,-0.4463,-0.4475,-0.448,-0.4425,-0.4425,-0.4425,0,0,-0.4373,-0.4373,-0.4381,-0.439,-0.4392,-0.4404,-0.4384,-0.4397,-0.4405,-0.4389,-0.4406,-0.4406,-0.441,-0.4432,-0.4441,-0.4433,-0.4478,-0.4463,-0.4465,-0.4466,-0.4478,-0.4483,-0.4488,-0.4427,-0.4427,-0.4426,0,0,-0.4409,-0.4411,-0.4428,-0.443,-0.4433,-0.4429,-0.4433,-0.4434,-0.4433,-0.445,-0.4438,-0.4448,-0.4465,-0.4467,-0.4471,-0.4508,-0.4498,-0.4511,-0.4532,-0.4545,-0.4549,-0.4553,-0.4566,-0.457,-0.4514,-0.4514,-0.4514,0,-0.443,-0.4447,-0.4438,-0.4452,-0.4456,-0.4441,-0.4458,-0.4461,-0.4466,-0.447,-0.446,-0.448,-0.4482,-0.4504,-0.4513,-0.4516,-0.4521,-0.4511,-0.4549,-0.4553,-0.4556,-0.4568,-0.4573,-0.4515,-0.4515,-0.4515,-0.4515,0,-0.4472,-0.4483,-0.4497,-0.4502,-0.4508,-0.4524,-0.4517,-0.4524,-0.4517,-0.4514,-0.4532,-0.4533,-0.4541,-0.4546,-0.454,-0.4567,-0.4562,-0.4551,-0.4533,-0.4563,-0.4574,-0.4579,-0.4517,-0.4517,-0.4516,-0.4516,0,0,-0.4525,-0.4524,-0.4529,-0.4531,-0.4533,-0.4542,-0.4556,-0.4564,-0.457,-0.4574,-0.4586,-0.46,-0.459,-0.4594,-0.4588,-0.4599,-0.4627,-0.4586,-0.4586,-0.4594,-0.4657,-0.4665,-0.467,-0.462,-0.4621,-0.4622,-0.4656,0,-0.456,-0.4585,-0.4577,-0.4601,-0.4612,-0.4597,-0.4609,-0.4612,-0.4609,-0.4618,-0.4615,-0.4625,-0.4611,-0.4613,-0.4624,-0.4621,-0.464,-0.4619,-0.4631,-0.4632,-0.4631,-0.4676,-0.4685,-0.4717,-0.466,-0.4661,-0.4662,0,-0.4605,-0.461,-0.4636,-0.4635,-0.4639,-0.4651,-0.4657,-0.4665,-0.4667,-0.4665,-0.4669,-0.466,-0.4674,-0.4657,-0.4676,-0.4662,-0.4666,-0.4666,-0.4667,-0.4668,-0.4649,-0.4678,-0.4727,-0.4732,-0.4668,-0.4668,-0.4667,0,-0.4641,-0.4654,-0.4671,-0.4673,-0.4673,-0.4681,-0.4681,-0.4682,-0.4687,-0.4693,-0.4696,-0.4703,-0.4707,-0.4712,-0.4706,-0.4694,-0.4725,-0.4708,-0.4723,-0.4724,-0.4731,-0.4731,-0.4781,-0.4734,-0.4734,-0.4734,-0.4734,0,-0.4681,-0.4697,-0.4687,-0.4697,-0.4715,-0.4705,-0.4723,-0.4722,-0.4723,-0.4732,-0.472,-0.473,-0.472,-0.4729,-0.4724,-0.474,-0.4742,-0.474,-0.4739,-0.4741,-0.4742,-0.4744,-0.4742,-0.4735,-0.4735,-0.4735,-0.4735,0,-0.4724,-0.4717,-0.4735,-0.4733,-0.4732,-0.4745,-0.4743,-0.4753,-0.4749,-0.4762,-0.4764,-0.4759,-0.4768,-0.4762,-0.4772,-0.4768,-0.4789,-0.4785,-0.4788,-0.4787,-0.4803,-0.4802,-0.4857,-0.4864,-0.4813,-0.4813,-0.4814,0,-0.475,-0.4762,-0.4761,-0.4766,-0.4767,-0.4776,-0.4781,-0.4772,-0.4777,-0.478,-0.4789,-0.4797,-0.4803,-0.4819,-0.4816,-0.4823,-0.4818,-0.4837,-0.4819,-0.4821,-0.4818,-0.4817,-0.4818,-0.4841,-0.4842,-0.4842,-0.4843,0,-0.4797,-0.4793,-0.48,-0.4806,-0.4811,-0.4816,-0.4819,-0.4824,-0.4815,-0.4821,-0.4831,-0.4835,-0.4845,-0.4853,-0.4859,-0.4859,-0.4849,-0.4848,-0.4852,-0.4855,-0.4856,-0.4855,-0.4798,-0.4847,-0.4846,-0.4846,-0.4846,-0.4846,-0.4832,-0.4842,-0.4842,-0.485,-0.4851,-0.4854,-0.4863,-0.486,-0.4867,-0.4874,-0.4868,-0.4879,-0.488,-0.4887,-0.4888,-0.4896,-0.4889,-0.4895,-0.4896,-0.4898,-0.49,-0.4855,-0.4898,-0.4897,-0.4897,-0.4897,-0.4897,0,-0.4878,-0.4877,-0.4885,-0.4889,-0.4895,-0.4885,-0.4888,-0.4894,-0.4903,-0.4905,-0.4911,-0.4921,-0.4929,-0.4926,-0.4933,-0.494,-0.4936,-0.4942,-0.4941,-0.4942,-0.4907,-0.4902,-0.4945,-0.4945,-0.4945,-0.4945,-0.4945,-0.4945,-0.4903,-0.4918,-0.4914,-0.493,-0.4929,-0.4939,-0.4942,-0.4944,-0.4946,-0.4957,-0.4964,-0.4961,-0.4961,-0.4968,-0.4974,-0.4973,-0.4976,-0.4984,-0.4982,-0.4949,-0.4944,-0.494,-0.4935,-0.4985,-0.4985,-0.5016,-0.5016,-0.5016]},{"header":{"parameterUnit":"m.s-1","parameterCategory":1,"la1":30.2991,"la2":30.254,"lo1":-89.0895,"lo2":-89.0444,"dy":0.0017,"dx":0.0017,"nx":28,"ny":28,"refTime":"2024-02-15T09:00:00:Z","depth":0,"parameterNumber":3,"parameterNumberName":"V-component_of_WINDS"},"data":[0,0,0,0,0,0,0,0,0,0,0,0,0,0,0,0,0,0,0,0,0,0,0,0,0,0,0,0,0,0,0,0,0,0,0,0,0,0,0,0,0,0,0,0,0,0,0,0,0,0,0,0,0,0,0,0,0,0,-1.6146,-1.6146,0,-1.6171,-1.6171,-1.6171,-1.6182,-1.6182,-1.6182,-1.6182,-1.6206,-1.6206,-1.6207,0,0,0,0,0,0,0,0,0,0,0,0,0,-1.6105,-1.6106,-1.6146,-1.6146,-1.6146,-1.6171,-1.6171,-1.6171,-1.6182,-1.6182,-1.6182,-1.6182,-1.6206,-1.6206,-1.6207,0,0,0,0,0,0,0,0,0,0,0,0,0,-1.6126,-1.6106,-1.6146,-1.6154,-1.6156,-1.6171,-1.6171,-1.6171,-1.6182,-1.6182,-1.6182,-1.6182,-1.6205,-1.6206,-1.6207,-1.6215,0,0,-1.621,-1.6211,0,0,0,0,0,0,0,0,-1.6125,-1.6127,-1.6153,-1.6154,-1.6155,-1.6173,-1.6166,-1.6186,-1.6182,-1.6172,-1.6182,-1.6181,-1.6195,-1.6197,-1.6202,-1.6216,-1.6217,-1.6211,-1.6211,-1.6212,-1.6212,0,0,0,0,0,0,0,-1.6123,-1.6126,-1.6156,-1.6153,-1.6155,-1.6157,-1.6159,-1.6169,-1.6183,-1.6173,-1.6173,-1.6176,-1.6195,-1.6201,-1.6202,-1.6218,-1.6211,-1.6211,-1.6212,-1.6212,-1.6239,-1.6239,0,0,0,0,0,0,-1.612,-1.6125,-1.6155,-1.6156,-1.6139,-1.6157,-1.6161,-1.6167,-1.6183,-1.6186,-1.6176,-1.6177,-1.6199,-1.6201,-1.6203,-1.6213,-1.6212,-1.6213,-1.6213,-1.6239,-1.6239,-1.6239,0,0,0,0,0,0,-1.612,-1.6123,-1.6154,-1.6141,-1.6145,-1.6158,-1.6166,-1.6168,-1.6173,-1.6186,-1.6188,-1.6179,-1.6199,-1.6202,-1.6212,-1.6214,-1.6213,-1.6214,-1.6238,-1.6239,-1.6239,-1.6232,0,0,0,0,0,0,-1.6118,-1.6123,-1.6126,-1.6141,-1.6146,-1.6163,-1.6166,-1.6168,-1.6175,-1.6176,-1.6189,-1.6192,-1.6199,-1.621,-1.6213,-1.6215,-1.6215,-1.6238,-1.6239,-1.6239,-1.6232,-1.6232,-1.6232,0,0,0,0,0,-1.6117,-1.6123,-1.6126,-1.613,-1.615,-1.6163,-1.6165,-1.6174,-1.6175,-1.6178,-1.6187,-1.6191,-1.6213,-1.6211,-1.6214,-1.6217,-1.6238,-1.6238,-1.6239,-1.6232,-1.6232,-1.6232,0,0,0,0,0,0,-1.6108,-1.6125,-1.6129,-1.6141,-1.615,-1.6165,-1.6169,-1.6174,-1.6183,-1.6183,-1.6194,-1.6196,-1.6206,-1.6212,-1.621,-1.6224,-1.6226,-1.6227,-1.622,-1.622,-1.622,-1.6218,-1.6216,0,0,0,0,0,-1.6108,-1.6117,-1.6131,-1.614,-1.6145,-1.6156,-1.6162,-1.6168,-1.6178,-1.6182,-1.6191,-1.62,-1.6209,-1.6215,-1.6224,-1.6233,-1.6236,-1.6236,-1.6236,-1.6236,-1.6236,-1.6241,-1.6241,-1.6239,-1.6239,-1.6239,0,0,-1.6107,-1.6117,-1.6123,-1.6138,-1.6147,-1.6155,-1.6159,-1.6169,-1.6175,-1.6183,-1.6193,-1.62,-1.6211,-1.6221,-1.6225,-1.6226,-1.6237,-1.6236,-1.6236,-1.6236,-1.6241,-1.6241,-1.6241,-1.6239,-1.6239,-1.6239,0,0,-1.611,-1.6119,-1.6127,-1.6134,-1.6147,-1.6154,-1.6156,-1.617,-1.6174,-1.6185,-1.6191,-1.6198,-1.6214,-1.6221,-1.6227,-1.6231,-1.6235,-1.6233,-1.6232,-1.6237,-1.6237,-1.6237,-1.6238,-1.6238,-1.6234,-1.6234,-1.6234,0,-1.6107,-1.6121,-1.613,-1.6139,-1.6145,-1.6153,-1.6161,-1.6168,-1.6182,-1.6186,-1.6187,-1.6206,-1.6214,-1.6225,-1.6226,-1.623,-1.6232,-1.6232,-1.6236,-1.6236,-1.6237,-1.6238,-1.6238,-1.6234,-1.6234,-1.6234,-1.6234,0,-1.6116,-1.6125,-1.613,-1.6144,-1.6151,-1.6159,-1.6169,-1.6175,-1.618,-1.6187,-1.6197,-1.6206,-1.6217,-1.622,-1.6225,-1.6231,-1.6232,-1.6234,-1.6236,-1.6236,-1.6237,-1.6238,-1.6233,-1.6233,-1.6233,-1.6233,0,0,-1.6115,-1.6133,-1.6135,-1.6141,-1.6154,-1.6161,-1.6169,-1.618,-1.6184,-1.6194,-1.62,-1.6213,-1.6215,-1.6221,-1.6227,-1.6231,-1.6233,-1.6233,-1.6233,-1.6232,-1.624,-1.6238,-1.6238,-1.6235,-1.6236,-1.6236,-1.6239,0,-1.6119,-1.6134,-1.6142,-1.6154,-1.6162,-1.6169,-1.6176,-1.6184,-1.6191,-1.6198,-1.6205,-1.6214,-1.6216,-1.622,-1.6224,-1.6232,-1.6234,-1.6231,-1.6241,-1.6241,-1.6238,-1.6239,-1.6237,-1.6239,-1.6239,-1.6239,-1.6239,0,-1.6126,-1.6135,-1.6148,-1.616,-1.6163,-1.6169,-1.6179,-1.6187,-1.6196,-1.62,-1.6207,-1.6213,-1.6221,-1.6221,-1.6232,-1.623,-1.6234,-1.6238,-1.6238,-1.624,-1.624,-1.624,-1.624,-1.624,-1.624,-1.624,-1.624,0,-1.6123,-1.6139,-1.6148,-1.6153,-1.6167,-1.6171,-1.6177,-1.6187,-1.6192,-1.6201,-1.6204,-1.6214,-1.6219,-1.6225,-1.6233,-1.6233,-1.6242,-1.6244,-1.6246,-1.6245,-1.6247,-1.6247,-1.6248,-1.625,-1.625,-1.625,-1.625,0,-1.6127,-1.6134,-1.6147,-1.6152,-1.616,-1.6169,-1.6176,-1.6183,-1.6191,-1.6198,-1.6204,-1.621,-1.622,-1.6226,-1.6232,-1.624,-1.6242,-1.6245,-1.6247,-1.6245,-1.6244,-1.6248,-1.6248,-1.625,-1.625,-1.625,-1.625,0,-1.6126,-1.6134,-1.6145,-1.6157,-1.616,-1.6166,-1.6176,-1.6181,-1.6188,-1.6196,-1.6198,-1.6208,-1.6216,-1.6225,-1.6236,-1.6239,-1.6247,-1.6249,-1.6244,-1.6244,-1.6246,-1.6245,-1.6249,-1.625,-1.6251,-1.6251,-1.6251,0,-1.6127,-1.6133,-1.6146,-1.6151,-1.6157,-1.6165,-1.617,-1.6179,-1.6184,-1.6195,-1.6199,-1.6208,-1.6215,-1.6228,-1.6236,-1.6244,-1.6246,-1.6247,-1.6248,-1.6245,-1.6246,-1.6245,-1.6246,-1.6247,-1.6247,-1.6247,-1.6247,0,-1.613,-1.6133,-1.6142,-1.6151,-1.6158,-1.6165,-1.6173,-1.6177,-1.6187,-1.6192,-1.6201,-1.6207,-1.6218,-1.6226,-1.6235,-1.6241,-1.6245,-1.6246,-1.6247,-1.6245,-1.6242,-1.6243,-1.6243,-1.6246,-1.6246,-1.6246,-1.6246,-1.6246,-1.613,-1.6135,-1.6144,-1.6153,-1.616,-1.6167,-1.6172,-1.6179,-1.6187,-1.6197,-1.6201,-1.6209,-1.6218,-1.6231,-1.6236,-1.6242,-1.6243,-1.6245,-1.6245,-1.6245,-1.6244,-1.6241,-1.6244,-1.6244,-1.6244,-1.6244,-1.6244,0,-1.6132,-1.6138,-1.6146,-1.6157,-1.6163,-1.6167,-1.6176,-1.6181,-1.6188,-1.6196,-1.6203,-1.6212,-1.622,-1.6229,-1.6237,-1.624,-1.6242,-1.6242,-1.6242,-1.6243,-1.6243,-1.6242,-1.624,-1.624,-1.624,-1.624,-1.624,-1.624,-1.6134,-1.6142,-1.6147,-1.6158,-1.6165,-1.6173,-1.6178,-1.6184,-1.619,-1.6201,-1.6207,-1.6213,-1.6221,-1.6229,-1.6237,-1.6239,-1.6241,-1.624,-1.6243,-1.6243,-1.6243,-1.6243,-1.6242,-1.6241,-1.6241,-1.6243,-1.6243,-1.6243]}]]